Volver al catálogo

HAWK-11C

ActivoMilitarVLEO
NORAD 62381·PAYLOAD·🇺🇸 United States

Lanzado Dec 21, 2024 desde Vandenberg Space Force Base

Loading…

Próximos Pases (próximas 24 horas)

TLE

ActualizadoSource: Space-Track

Época: Sep 14, 2026, 02:39 UTC

1 62381U 24247E   26257.11100464  .00005765  00000-0  19658-3 0  9993
2 62381  45.0032 161.2467 0003197   0.3240 359.7646 15.31359520 96630

Sigue HAWK-11C en tiempo real con AllMySat

Download on the App Store